Showing default

BEIDOU 3M25, 61186

Orbit data source: Space-Track

BEIDOU 3M25, 61186 is a payload satellite owned by CNSA (CN) in MEO that was launched on Thu, 19 Sep 2024 UTC via a CHANG ZHENG 3B/YZ-1 launch vehicle from the Xichang Space Center, China (XSC). Payload-class satellites include a variety of spacecraft equipped with specific instruments for various scientific and technological missions. These include communications satellites like Starlink; space stations such as the ISS; scientific satellites like the Hubble; Earth observation satellites from companies like Planet Labs, Umbra, and HawkEye 360; GPS; miniature CubeSats for education and research; and military/defense satellites.

Loading next visibility...
Identifier
61186, 2024-168B
Orbit
MEO
Country
Flag of CNCN / PRC
Related business
Manufacturer
CAST
Mission
Operational Defense Navigation
Bus & Motor
BD-3M, Unknown motor
Mass
1,014 kg wet, ~850 kg dry
Launch date (UTC)
2024-09-19 (2 years ago)
Launch vehicle
CHANG ZHENG 3B/YZ-1
Launch site
Xichang Space Center, China (XSC)
Object type
Payload
Rocket body
Debris
Shape & HBR
Box + 2 Pan, 5.0 m
Radar Cross Section
8.984 m²

Expand to show TLE details & history
Last TLE update: 1 day ago

TLE from 1 day ago
0 BEIDOU 3M25
1 61186U 24168B   26170.87388850 -.00000088  00000-0  00000-0 0  9993
2 61186  54.4707 302.1484 0003007 300.7544 238.5226  1.86230002 11839
Epoch: 2026-06-19T20:58Z
TLE epoch observation values (Epoch: 2026-06-19T20:58:23.966Z)
Latitude
0.5686°
Longitude
-100.97062°
Altitude
21,532.736 km
Speed
3.779 km/s
True Right ascension
08h 06m 54s
True Declination
0° 34' 04"
Sunlit
Object was in daylight at epoch
Visualization orbit readout
Latitude
Unknown
Longitude
Unknown
Altitude
Unknown
Speed
Unknown
Apparent Right ascension
Unknown
Apparent Declination
Unknown
Sunlit
N/A
Visualization observer readout
Local Sidereal Time
07:24:24
Azimuth
Unknown
Elevation
Unknown
Doppler factor
Unknown
Orbital elements
Apogee altitude
21,536.57 km
Perigee altitude
21,519.787 km
Semi-major axis
27,906.316 km
Eccentricity
0.0003
Inclination
54.4707°
RAAN
302.1484°
Arg. of periapsis
300.7544°
True anomaly
238.49322°
Mean anomaly
238.5226°
Eccentric anomaly
238.50791°
Mean motion
0.46557 °/min
Orbital period
773.24 mins
BSTAR
0
Loading maneuver chart data...
Computing Atmospheric mass density...
Loading historical data...
Loading historical data...
Loading historical data...
Loading historical data...
Loading historical data...
Loading historical data...
Loading historical data...
Other satellites on launch #168 in the year 2024 (2024-09-19 UTC)

Documentation

Showing up to 5 results
|